Regional Weather Roundup
Issued by NWS Mt. Holly, NJ

Home | Current Version | Previous Version | Text Only | Print | Product List | Glossary On
Versions: 1 2 3 4 5 6 7 8 9 10 11 12 13 14 15 16 17 18 19 20 21 22 23 24 25 26 27 28 29 30 31 32 33 34 35 36 37 38 39 40 41 42 43 44 45 46 47 48 49 50
000
ASUS41 KPHI 192011
RWRPHI

REGIONAL WEATHER ROUNDUP
NATIONAL WEATHER SERVICE MOUNT HOLLY NJ
400 PM EDT SUN APR 19 2015

NOTE:  "FAIR" INDICATES FEW OR NO CLOUDS BELOW 12,000 FEET WITH NO
SIGNIFICANT WEATHER AND/OR OBSTRUCTIONS TO VISIBILITY.

 * = STATION DOES NOT REPORT PRECIPITATION (E.G. RAIN, SNOW, ETC.)
        OR FOG.

NJZ015>026-192100-
SOUTHERN NEW JERSEY

CITY           SKY/WX    TMP DP  RH WIND       PRES   REMARKS
POMONA         CLOUDY    54  38  54 E17G24    30.18F
MILLVILLE      CLOUDY    57  35  43 E14       30.16F
WRIGHTSTOWN    PTSUNNY   55  35  48 E14G23    30.15F
MOUNT HOLLY    CLOUDY    56  36  47 E12       30.17F
TRENTON        PTSUNNY   58  32  37 SE13      30.15F

$$
NJZ001>014-192100-
NORTHERN NEW JERSEY

CITY           SKY/WX    TMP DP  RH WIND       PRES   REMARKS
SUSSEX         SUNNY     65  28  24 SE12      30.13F
ANDOVER*         N/A     61  36  39 SE8G16    30.13F
MORRISTOWN     PTSUNNY   57  36  44 S14G21    30.18F
NEWARK         PTSUNNY   53  34  48 SE13G21   30.20F
TETERBORO      SUNNY     58  34  40 S9G18     30.18F
CALDWELL       SUNNY     56  34  43 SE10      30.18F
SOMERVILLE     MOSUNNY   61  35  37 E9G16     30.15F
ALLAIRE*       MOSUNNY   50  34  53 E13       30.20F
TOMS RIVER*    PTSUNNY   52  36  54 E10G18    30.20F

$$
PAZ043-044-047-054-055-060>062-066>071-192100-
EASTERN PENNSYLVANIA

CITY           SKY/WX    TMP DP  RH WIND       PRES   REMARKS
PHILADELPHIA   CLOUDY    60  35  39 E13       30.15F
NORTH PHILA    CLOUDY    60  32  34 SE12      30.18F
BLUE BELL      CLOUDY    63  34  34 SE8G17    30.14F
DOYLESTOWN     PTSUNNY   58  34  40 S13       30.14F
QUAKERTOWN*    PTSUNNY   63  36  36 S10G18    30.14S
POTTSTOWN      CLOUDY    62  35  36 E9        30.14F
LANCASTER      CLOUDY    62  39  42 SE14      30.09F
COATESVILLE    CLOUDY    63  36  36 SE12      30.12F
READING        PTSUNNY   65  36  34 E10       30.09F
ALLENTOWN      MOSUNNY   67  36  31 SE12G17   30.11F
MOUNT POCONO   MOSUNNY   62  21  20 S13G21    30.11F
HAZLETON       PTSUNNY   63  28  27 SE7G16    30.11F
WILKES BARRE   MOSUNNY   69  23  17 SE7       30.06F

$$
DEZALL-MDZ008-012-015-019-020-192100-
DELAWARE AND EASTERN MARYLAND

CITY           SKY/WX    TMP DP  RH WIND       PRES   REMARKS
WILMINGTON     CLOUDY    61  35  37 SE14      30.14F
DOVER          PTSUNNY   54  40  57 E20G25    30.12F
GEORGETOWN     PTSUNNY   58  43  57 E17G28    30.14F
EASTON         SUNNY     63  43  48 N12G23    30.16S
PATUXENT       CLOUDY    61  50  67 E17G23    30.08F
OCEAN CITY     CLOUDY    53  45  74 NE16G25   30.13F
WALLOPS ISLAND CLOUDY    57  50  77 NE21G26   30.10F
CAMBRIDGE      CLOUDY    61  45  55 E13G18    30.11R
SALISBURY      CLOUDY    59  46  62 E13G24    30.11F

$$
PAZ001-021-NYZ056-072-MDZ011-DCZ001-192100-
OTHER NEARBY LOCATIONS

CITY           SKY/WX    TMP DP  RH WIND       PRES   REMARKS
HARRISBURG     CLOUDY    64  41  42 SE15      30.07F
STATE COLLEGE  SUNNY     64  34  32 S10G16    30.03F
WILLIAMSPORT   PTSUNNY   69  26  20 SE8G18    30.03F
BINGHAMTON     MOSUNNY   63  22  20 VRB6      30.06F
NEW YORK CITY  SUNNY     57  32  38 S7        30.22F
BALTIMORE      CLOUDY    60  40  47 E15G23    30.11F
WASHINGTON DC  CLOUDY    66  49  54 E17       30.08F

$$



USA.gov is the U.S. government's official web portal to all federal, state and local government web resources and services.